SUPERBIRD-C2

Last updated on Wed May 14 2025 00:02:42 GMT+0000 (Coordinated Universal Time)

1 33274U 08038A 25133.55126303 -.00000234 00000+0 00000+0 0 9995 2 33274 1.3291 86.4058 0000984 315.8193 171.7334 1.00271102101720
UTC large
Height (km)
Speed (km/s)
/
Latitude / Longitude
Inclination (degrees)
Orbital Period (minutes)
Azimuth
Elevation
Range (km)
Doppler Factor

Next 0 passes for location: London (51.5072 / 0.1276)

Sorry there are no passes over London.